Location: Unspecified
(0.0000°N, 0.0000°E)
Time: 18:55:33
(UTC+00:00)

Vanguard 2 Rocket - Pass Details

Date: 23 January 2020
Orbit: 554 x 3327 km, 32.9° (Epoch: 20 February)

Event Time Altitude Azimuth Distance (km) Brightness Sun altitude
Rises 23:32:12 0° 222° (SW) 4,859 10.9 -68.3°
Enters shadow 23:33:54 - 219° (SW) 4,282 10.6 -68.5°
Reaches altitude 10° 23:36:35 10° 212° (SSW) 3,369 - -68.8°
Maximum altitude 23:43:07 28° 155° (SSE) 1,653 - -69.4°
Drops below altitude 10° 23:47:30 10° 95° (E) 2,208 - -69.7°
Sets 23:49:45 0° 82° (E) 2,946 - -69.9°
